When you browse on this site, cookies collect data to enhance your experience and personalize the content and advertising you see.
Visit our Privacy Policy to learn more. By continuing to use the site, you agree to this use of cookies and data.
  • In Deutschland
  • Länderverzeichnis
  • Für 7 Tage
  • Wassertemperatur
  • Wetterkarte
  • Widgets
  • user-avatar
    Anmelden

    Stündliche Wetter Wlora

    Heute, 18 August, Sonntag

    Zeit Temperatur Niederschläge Wind Luftdruck Luftfeuchtigkeit
    00:00 +22°C° 0 mm 5 m/S 760 mmHg 69%
    01:00 +22°C° 0 mm 5 m/S 760 mmHg 64%
    02:00 +22°C° 0 mm 4 m/S 760 mmHg 61%
    03:00 +22°C° 0 mm 4 m/S 760 mmHg 59%
    04:00 +22°C° 0 mm 4 m/S 760 mmHg 56%
    05:00 +24°C° 0 mm 3 m/S 760 mmHg 50%
    06:00 +26°C° 0 mm 3 m/S 761 mmHg 44%
    07:00 +28°C° 0 mm 2 m/S 761 mmHg 37%
    08:00 +30°C° 0 mm 2 m/S 761 mmHg 34%
    09:00 +31°C° 0 mm 2 m/S 761 mmHg 31%
    10:00 +34°C° 0 mm 2 m/S 761 mmHg 29%
    11:00 +34°C° 0 mm 2 m/S 761 mmHg 30%
    12:00 +34°C° 0 mm 2 m/S 761 mmHg 31%
    13:00 +34°C° 0 mm 2 m/S 761 mmHg 33%
    14:00 +32°C° 0 mm 2 m/S 761 mmHg 35%
    15:00 +32°C° 0 mm 2 m/S 760 mmHg 37%
    16:00 +31°C° 0 mm 2 m/S 760 mmHg 39%
    17:00 +30°C° 0 mm 3 m/S 760 mmHg 44%
    18:00 +28°C° 0 mm 3 m/S 760 mmHg 49%
    19:00 +26°C° 0 mm 3 m/S 760 mmHg 54%
    20:00 +26°C° 0 mm 3 m/S 761 mmHg 54%
    21:00 +25°C° 0 mm 3 m/S 761 mmHg 53%
    22:00 +25°C° 0 mm 3 m/S 761 mmHg 53%
    23:00 +25°C° 0 mm 2 m/S 761 mmHg 51%

    Morgen, 19 August, Montag

    Zeit Temperatur Niederschläge Wind Luftdruck Luftfeuchtigkeit
    00:00 +25°C° 0 mm 2 m/S 761 mmHg 49%
    01:00 +25°C° 0 mm 2 m/S 761 mmHg 47%
    02:00 +25°C° 0 mm 2 m/S 761 mmHg 48%
    03:00 +24°C° 0 mm 2 m/S 761 mmHg 48%
    04:00 +24°C° 0 mm 2 m/S 761 mmHg 49%
    05:00 +25°C° 0 mm 2 m/S 761 mmHg 45%
    06:00 +27°C° 0 mm 2 m/S 761 mmHg 41%
    07:00 +29°C° 0 mm 1 m/S 761 mmHg 37%
    08:00 +30°C° 0 mm 1 m/S 761 mmHg 36%
    09:00 +31°C° 0 mm 1 m/S 761 mmHg 35%
    10:00 +32°C° 0 mm 1 m/S 761 mmHg 34%
    11:00 +33°C° 0 mm 1 m/S 761 mmHg 34%
    12:00 +33°C° 0 mm 1 m/S 761 mmHg 35%
    13:00 +34°C° 0 mm 2 m/S 761 mmHg 35%
    14:00 +34°C° 0 mm 2 m/S 761 mmHg 36%
    15:00 +34°C° 0 mm 2 m/S 760 mmHg 37%
    16:00 +32°C° 0 mm 2 m/S 760 mmHg 38%
    17:00 +30°C° 0 mm 2 m/S 760 mmHg 44%
    18:00 +29°C° 0 mm 2 m/S 760 mmHg 49%
    19:00 +27°C° 0 mm 2 m/S 761 mmHg 55%
    20:00 +27°C° 0 mm 2 m/S 761 mmHg 54%
    21:00 +26°C° 0 mm 2 m/S 761 mmHg 53%
    22:00 +26°C° 0 mm 2 m/S 761 mmHg 52%
    23:00 +26°C° 0 mm 2 m/S 761 mmHg 52%

    übermorgen, 20 August, Dienstag

    Zeit Temperatur Niederschläge Wind Luftdruck Luftfeuchtigkeit
    00:00 +25°C° 0 mm 2 m/S 761 mmHg 52%
    01:00 +25°C° 0 mm 2 m/S 761 mmHg 53%
    02:00 +25°C° 0 mm 2 m/S 761 mmHg 52%
    03:00 +25°C° 0 mm 2 m/S 761 mmHg 52%
    04:00 +25°C° 0 mm 2 m/S 761 mmHg 51%
    05:00 +26°C° 0 mm 2 m/S 762 mmHg 48%
    06:00 +28°C° 0 mm 2 m/S 762 mmHg 45%
    07:00 +29°C° 0 mm 2 m/S 762 mmHg 41%
    08:00 +31°C° 0 mm 1 m/S 762 mmHg 39%
    09:00 +33°C° 0 mm 1 m/S 762 mmHg 36%
    10:00 +34°C° 0 mm 1 m/S 762 mmHg 33%
    11:00 +34°C° 0 mm 1 m/S 762 mmHg 34%
    12:00 +35°C° 0 mm 2 m/S 762 mmHg 35%
    13:00 +35°C° 0 mm 2 m/S 762 mmHg 35%
    14:00 +35°C° 0 mm 2 m/S 761 mmHg 37%
    15:00 +33°C° 0 mm 1 m/S 761 mmHg 38%
    16:00 +33°C° 0 mm 1 m/S 761 mmHg 40%
    17:00 +31°C° 0 mm 1 m/S 761 mmHg 46%
    18:00 +29°C° 0 mm 1 m/S 761 mmHg 52%
    19:00 +27°C° 0 mm 1 m/S 761 mmHg 57%
    20:00 +27°C° 0 mm 1 m/S 761 mmHg 57%
    21:00 +27°C° 0 mm 1 m/S 762 mmHg 57%
    22:00 +26°C° 0 mm 1 m/S 762 mmHg 57%
    23:00 +26°C° 0 mm 1 m/S 762 mmHg 57%

    21 August, Mittwoch

    Zeit Temperatur Niederschläge Wind Luftdruck Luftfeuchtigkeit
    00:00 +26°C° 0 mm 1 m/S 762 mmHg 56%
    01:00 +26°C° 0 mm 1 m/S 761 mmHg 56%
    02:00 +26°C° 0 mm 1 m/S 761 mmHg 55%
    03:00 +26°C° 0 mm 1 m/S 761 mmHg 54%
    04:00 +25°C° 0 mm 1 m/S 761 mmHg 54%
    05:00 +27°C° 0 mm 1 m/S 762 mmHg 50%
    06:00 +29°C° 0 mm 1 m/S 762 mmHg 46%
    07:00 +30°C° 0 mm 2 m/S 762 mmHg 42%
    08:00 +31°C° 0 mm 2 m/S 762 mmHg 40%
    09:00 +32°C° 0 mm 2 m/S 762 mmHg 39%
    10:00 +35°C° 0 mm 2 m/S 762 mmHg 38%
    11:00 +35°C° 0 mm 2 m/S 761 mmHg 38%
    12:00 +35°C° 0 mm 2 m/S 761 mmHg 38%
    13:00 +35°C° 0 mm 3 m/S 761 mmHg 38%
    14:00 +35°C° 0 mm 2 m/S 760 mmHg 39%
    15:00 +35°C° 0 mm 2 m/S 760 mmHg 40%
    16:00 +34°C° 0 mm 2 m/S 760 mmHg 41%
    17:00 +31°C° 0 mm 2 m/S 760 mmHg 46%
    18:00 +29°C° 0 mm 1 m/S 760 mmHg 52%
    19:00 +27°C° 0 mm 1 m/S 760 mmHg 57%
    20:00 +27°C° 0 mm 1 m/S 760 mmHg 57%
    21:00 +27°C° 0 mm 1 m/S 761 mmHg 56%
    22:00 +27°C° 0 mm 1 m/S 761 mmHg 56%
    23:00 +27°C° 0 mm 1 m/S 761 mmHg 55%

    22 August, Donnerstag

    Zeit Temperatur Niederschläge Wind Luftdruck Luftfeuchtigkeit
    00:00 +27°C° 0 mm 1 m/S 761 mmHg 55%
    01:00 +26°C° 0 mm 1 m/S 761 mmHg 55%
    02:00 +26°C° 0 mm 1 m/S 761 mmHg 56%
    03:00 +26°C° 0 mm 1 m/S 761 mmHg 57%
    04:00 +25°C° 0 mm 1 m/S 761 mmHg 58%
    05:00 +27°C° 0 mm 1 m/S 761 mmHg 53%
    06:00 +29°C° 0 mm 1 m/S 761 mmHg 49%
    07:00 +30°C° 0 mm 1 m/S 761 mmHg 44%
    08:00 +32°C° 0 mm 1 m/S 761 mmHg 41%
    09:00 +33°C° 0 mm 1 m/S 761 mmHg 38%
    10:00 +35°C° 0 mm 1 m/S 761 mmHg 35%
    11:00 +36°C° 0 mm 2 m/S 761 mmHg 35%
    12:00 +36°C° 0 mm 2 m/S 761 mmHg 36%
    13:00 +36°C° 0 mm 3 m/S 760 mmHg 37%
    14:00 +35°C° 0 mm 3 m/S 760 mmHg 39%
    15:00 +35°C° 0 mm 3 m/S 760 mmHg 41%
    16:00 +34°C° 0 mm 3 m/S 760 mmHg 44%
    17:00 +31°C° 0 mm 3 m/S 760 mmHg 50%
    18:00 +30°C° 0 mm 2 m/S 760 mmHg 56%
    19:00 +28°C° 0 mm 2 m/S 760 mmHg 61%
    20:00 +28°C° 0 mm 3 m/S 760 mmHg 60%
    21:00 +27°C° 0 mm 3 m/S 760 mmHg 59%
    22:00 +27°C° 0 mm 3 m/S 761 mmHg 57%
    23:00 +27°C° 0 mm 3 m/S 761 mmHg 57%

    23 August, Freitag

    Zeit Temperatur Niederschläge Wind Luftdruck Luftfeuchtigkeit
    00:00 +27°C° 0 mm 3 m/S 761 mmHg 58%
    01:00 +26°C° 0 mm 3 m/S 761 mmHg 58%
    02:00 +26°C° 0 mm 3 m/S 761 mmHg 59%
    03:00 +26°C° 0 mm 3 m/S 760 mmHg 60%
    04:00 +25°C° 0 mm 2 m/S 760 mmHg 61%
    05:00 +27°C° 0 mm 2 m/S 761 mmHg 56%
    06:00 +29°C° 0 mm 2 m/S 761 mmHg 50%
    07:00 +30°C° 0 mm 2 m/S 761 mmHg 45%
    08:00 +32°C° 0 mm 2 m/S 761 mmHg 41%
    09:00 +35°C° 0 mm 2 m/S 761 mmHg 38%
    10:00 +36°C° 0 mm 2 m/S 761 mmHg 34%
    11:00 +36°C° 0 mm 3 m/S 761 mmHg 37%
    12:00 +36°C° 0 mm 3 m/S 760 mmHg 39%
    13:00 +35°C° 0 mm 3 m/S 760 mmHg 42%
    14:00 +35°C° 0 mm 3 m/S 760 mmHg 41%
    15:00 +35°C° 0 mm 3 m/S 760 mmHg 41%
    16:00 +35°C° 0 mm 2 m/S 760 mmHg 41%
    17:00 +33°C° 0 mm 3 m/S 760 mmHg 45%
    18:00 +31°C° 0 mm 3 m/S 760 mmHg 48%
    19:00 +30°C° 0 mm 3 m/S 760 mmHg 52%
    20:00 +30°C° 0 mm 3 m/S 760 mmHg 51%
    21:00 +29°C° 0 mm 4 m/S 761 mmHg 51%
    22:00 +29°C° 0 mm 4 m/S 761 mmHg 50%
    23:00 +29°C° 0 mm 4 m/S 761 mmHg 53%
    Mehr zeigen